Showing default

KHALIFASAT, 43676

Orbit data source: Space-Track

KHALIFASAT, 43676 is a payload satellite owned by Rashid Space Ctr (AE) in SSO that was launched on Mon, 29 Oct 2018 UTC via an H-IIA 202 launch vehicle from the Tanegashima Space Center (TNSTA). Payload-class satellites include a variety of spacecraft equipped with specific instruments for various scientific and technological missions. These include communications satellites like Starlink; space stations such as the ISS; scientific satellites like the Hubble; Earth observation satellites from companies like Planet Labs, Umbra, and HawkEye 360; GPS; miniature CubeSats for education and research; and military/defense satellites.

Loading next visibility...
Identifier
43676, 2018-084F
Orbit
SSO
Country
Flag of AEAE / UAE
Related business
Manufacturer
MBRSC/SATREC
Mission
Operational Civil Imaging
Bus & Motor
SI-300, Unknown motor
Mass
330 kg wet, 300 kg dry
Launch date (UTC)
2018-10-29 (7 years ago)
Launch vehicle
H-IIA 202
Launch site
Tanegashima Space Center (TNSTA)
Object type
Payload
Rocket body
Debris
Shape & HBR
Hex Cyl + 3 Pan, 1.5 m
Radar Cross Section
2.520 m², Large (>1 m²)

Expand to show TLE details & history
Last TLE update: 8 hours ago

TLE from 8 hours ago
0 KHALIFASAT
1 43676U 18084F   25286.96461666  .00004120  00000-0  33686-3 0  9990
2 43676  98.1014  94.5371 0008177 199.6166 160.4743 14.99930190378841
Epoch: 2025-10-13T23:09Z
TLE epoch observation values (Epoch: 2025-10-13T23:09:02.879Z)
Latitude
Longitude
84.51526°
Altitude
575.508 km
Speed
7.57 km/s
True Right ascension
06h 18m 08s
True Declination
0° 00' 00"
Sunlit
Object was in daylight at epoch
Visualization orbit readout
Latitude
Unknown
Longitude
Unknown
Altitude
Unknown
Speed
Unknown
Apparent Right ascension
Unknown
Apparent Declination
Unknown
Sunlit
N/A
Visualization observer readout
Local Sidereal Time
01:32:06
Azimuth
Unknown
Elevation
Unknown
Doppler factor
Unknown
Orbital elements
Apogee altitude
569.812 km
Perigee altitude
558.459 km
Semi-major axis
6,942.272 km
Eccentricity
0.00082
Inclination
98.1014°
RAAN
94.5371°
Arg. of periapsis
199.6166°
True anomaly
160.50559°
Mean anomaly
160.4743°
Eccentric anomaly
160.48995°
Mean motion
3.75224 °/min
Orbital period
95.94 mins
BSTAR
0.00033686
Loading maneuver chart data...
Computing Atmospheric mass density...
Loading historical data...
Loading historical data...
Loading historical data...
Loading historical data...
Loading historical data...
Loading historical data...
Loading historical data...

Documentation

Showing up to 5 results
|